Regional Weather Roundup
Issued by NWS

Home | Current Version | Previous Version | Graphics & Text | Print | Product List | Glossary On
Versions: 1 2 3 4 5 6 7 8 9 10 11 12 13 14 15 16 17 18 19 20 21 22 23 24 25 26 27 28 29 30 31 32 33 34 35 36 37 38 39 40 41 42 43 44 45 46 47 48 49 50
000
ASUS43 KFSD 202310
RWRSD

WEATHER ROUNDUP FOR SOUTH DAKOTA
NATIONAL WEATHER SERVICE SIOUX FALLS SD
500 PM CST MON FEB 20 2017

NOTE: "FAIR" INDICATES FEW OR NO CLOUDS BELOW 12,000 FEET WITH NO
SIGNIFICANT WEATHER AND/OR OBSTRUCTIONS TO VISIBILITY.


SDZ001>005-009-010-012>017-210000-
NORTHWEST AND NORTH CENTRAL SOUTH DAKOTA

CITY           SKY/WX    TMP DP  RH WIND       PRES   REMARKS
BUFFALO          N/A     58  21  24 SW15      29.68F
FAITH            N/A     57  25  29 W14       29.78F
MOBRIDGE       SUNNY     54  37  52 NW8       29.77R
$$

SDZ012>016-024>037-041>051-057-063-072>074-210000-
SOUTHWEST AND SOUTH CENTRAL SOUTH DAKOTA

CITY           SKY/WX    TMP DP  RH WIND       PRES   REMARKS
RAPID CTY ARPT SUNNY     62  19  19 S12       29.80F
PIERRE         SUNNY     59  30  33 NW15      29.80R
CUSTER         SUNNY     51  17  26 W12G26    29.85F
ELLSWORTH AFB  SUNNY     62  19  18 S13       29.79F
PHILIP         SUNNY     63  25  23 NW9       29.81F
PINE RIDGE     SUNNY     59  22  24 SW8       29.85F
SPEARFISH      FAIR      57  19  23 SW13G23   29.78F
WINNER         FAIR      62  27  26 NW17      29.84R
$$

SDZ004>011-016>023-039-040-210000-
NORTHEAST SOUTH DAKOTA

CITY           SKY/WX    TMP DP  RH WIND       PRES   REMARKS
ABERDEEN       SUNNY     48  38  68 NW17      29.75R
WATERTOWN      CLEAR     45  40  82 NW14      29.71R
BROOKINGS      CLEAR     50  42  74 NW18      29.72R
SISSETON         N/A     44  40  85 NW16      29.69R
$$

SDZ017-020-022-023-036>040-048>070-210000-
SOUTHEAST SOUTH DAKOTA

CITY           SKY/WX    TMP DP  RH WIND       PRES   REMARKS
SIOUX FALLS    MOSUNNY   53  45  74 NW14      29.75R
HURON          SUNNY     55  43  63 NW16      29.76R
CHAMBERLAIN    SUNNY     60  34  37 NW14      29.81R
MITCHELL       SUNNY     57  42  57 NW10      29.79R
YANKTON        SUNNY     55  43  62 NW16      29.79R
$$

ABBREVIATIONS USED IN REMARKS
   TC - TEMPERATURE IN CELSIUS
  WCI - WIND CHILL INDEX
   HX - HEAT INDEX
  VSB - VISIBILITY




USA.gov is the U.S. government's official web portal to all federal, state and local government web resources and services.